McConnell AFB, KS

1:56 PM CST on December 05, 2019 (GMT -0600)
McConnell Air Force Base

Weather History for KIAB - September, 2019

Change the Weather History Date:

Friday, September 20, 2019

  Actual Average Record
Temperature  
Mean Temperature 74 °F -  
Max Temperature 81 °F 77 °F 93 °F (1998)
Min Temperature 69 °F 57 °F 46 °F (2003)
Cooling Degree Days 9    
Growing Degree Days 24 (Base 50)    
Moisture  
Dew Point 67 °F    
Average Humidity 79    
Maximum Humidity 94    
Minimum Humidity 68    
Precipitation  
Precipitation 0.00 in - - ()
Sea Level Pressure  
Sea Level Pressure 29.93 in    
Wind  
Wind Speed 11 mph (ESE)    
Max Wind Speed 18 mph    
Max Gust Speed 28 mph    
Visibility 9 miles    
Events Rain    
Averages and records for this station are not official NWS values.
T = Trace of Precipitation, MM = Missing Value Source: NWS Daily Summary

Daily Weather History Graph

Daily Weather History Graph

Search for Another Location

Airport or City:

Astronomy

Sep. 20, 2019 Rise Set
Actual Time 7:15 AM CDT 7:29 PM CDT
Civil Twilight 6:48 AM CDT 7:55 PM CDT
Nautical Twilight 6:18 AM CDT 8:26 PM CDT
Astronomical Twilight 5:47 AM CDT 8:57 PM CDT
Moon 11:26 PM CDT (9/20) 1:14 PM CDT (9/20)
Length of Visible Light 13h 06m
Length of Day
12h 14m
Waning Gibbous, 65% of the Moon is Illuminated
Sep 20
Waning Gibbous
Sep 21
Last Quarter
Sep 28
New
Oct 5
First Quarter
Oct 13
Full

Hourly Weather History & Observations

Time (CDT) Temp. Dew Point Humidity Pressure Visibility Wind Dir Wind Speed Gust Speed Precip Events Conditions
12:56 AM 75.4 °F 65.3 °F 71% 29.94 in 10.0 mi East 8.1 mph - N/A   Clear
1:56 AM 74.3 °F 64.6 °F 72% 29.95 in 10.0 mi East 8.1 mph - N/A   Scattered Clouds
2:56 AM 72.9 °F 64.8 °F 76% 29.93 in 10.0 mi East 10.4 mph - N/A   Clear
3:56 AM 72.1 °F 64.6 °F 77% 29.91 in 10.0 mi East 11.5 mph - N/A   Clear
4:56 AM 71.6 °F 64.8 °F 79% 29.91 in 10.0 mi East 8.1 mph - N/A   Clear
5:56 AM 70.5 °F 64.8 °F 82% 29.92 in 10.0 mi East 8.1 mph - N/A   Mostly Cloudy
6:56 AM 69.8 °F 64.8 °F 84% 29.95 in 10.0 mi East 6.9 mph - N/A   Mostly Cloudy
7:51 AM 69.8 °F 66.2 °F 88% 29.96 in 10.0 mi East 8.1 mph - N/A   Overcast
7:56 AM 70.5 °F 65.5 °F 84% 29.96 in 10.0 mi East 8.1 mph - N/A   Overcast
8:35 AM 71.6 °F 66.2 °F 83% 29.96 in 10.0 mi East 6.9 mph - N/A   Overcast
8:45 AM 71.6 °F 66.2 °F 83% 29.98 in 10.0 mi East 9.2 mph - N/A   Overcast
8:56 AM 71.2 °F 65.8 °F 83% 29.96 in 10.0 mi East 9.2 mph - N/A   Overcast
9:01 AM 71.6 °F 66.2 °F 83% 29.96 in 10.0 mi East 10.4 mph - N/A   Overcast
9:56 AM 72.3 °F 66.2 °F 81% 29.96 in 10.0 mi East 10.4 mph - N/A   Overcast
10:56 AM 72.0 °F 67.5 °F 86% 29.98 in 10.0 mi ESE 11.5 mph - N/A   Overcast
11:16 AM 71.6 °F 68.0 °F 88% 29.97 in 8.0 mi ESE 10.4 mph - N/A   Overcast
11:20 AM 71.6 °F 68.0 °F 88% 29.97 in 7.0 mi ESE 12.7 mph - N/A Rain Light Rain
11:31 AM 71.6 °F 68.0 °F 88% 29.97 in 9.0 mi ESE 12.7 mph - N/A   Overcast
11:56 AM 72.3 °F 68.9 °F 89% 29.97 in 6.0 mi East 10.4 mph - 0.00 in   Overcast
12:06 PM 71.6 °F 69.8 °F 94% 29.97 in 4.0 mi ESE 9.2 mph - N/A   Overcast
12:20 PM 71.6 °F 69.8 °F 94% 29.96 in 7.0 mi ESE 12.7 mph - N/A Rain Light Rain
12:29 PM 73.4 °F 69.8 °F 88% 29.94 in 6.0 mi East 13.8 mph - N/A   Overcast
12:34 PM 73.4 °F 69.8 °F 88% 29.94 in 5.0 mi ESE 12.7 mph - N/A   Overcast
12:56 PM 73.6 °F 69.1 °F 86% 29.94 in 10.0 mi ESE 13.8 mph - 0.00 in   Overcast
1:16 PM 73.4 °F 69.8 °F 88% 29.94 in 9.0 mi ESE 15.0 mph - N/A   Overcast
1:26 PM 73.4 °F 68.0 °F 83% 29.94 in 10.0 mi ESE 13.8 mph - N/A   Overcast
1:36 PM 75.2 °F 68.0 °F 78% 29.94 in 10.0 mi ESE 13.8 mph - N/A   Overcast
1:41 PM 73.4 °F 68.0 °F 83% 29.94 in 10.0 mi ESE 13.8 mph - N/A   Overcast
1:56 PM 75.0 °F 68.0 °F 79% 29.93 in 10.0 mi ESE 13.8 mph - N/A   Overcast
2:31 PM 77.0 °F 68.0 °F 74% 29.91 in 10.0 mi East 11.5 mph - N/A   Mostly Cloudy
2:36 PM 77.0 °F 68.0 °F 74% 29.91 in 10.0 mi ESE 13.8 mph - N/A   Overcast
2:40 PM 77.0 °F 68.0 °F 74% 29.91 in 10.0 mi East 15.0 mph - N/A   Overcast
2:45 PM 77.0 °F 68.0 °F 74% 29.91 in 10.0 mi East 12.7 mph - N/A   Overcast
2:56 PM 77.4 °F 67.6 °F 72% 29.91 in 10.0 mi East 15.0 mph - N/A   Overcast
3:06 PM 77.0 °F 68.0 °F 74% 29.91 in 10.0 mi ESE 10.4 mph - N/A   Overcast
3:11 PM 77.0 °F 68.0 °F 74% 29.91 in 10.0 mi ESE 11.5 mph - N/A   Overcast
3:16 PM 77.0 °F 68.0 °F 74% 29.91 in 10.0 mi ESE 13.8 mph - N/A   Overcast
3:26 PM 77.0 °F 68.0 °F 74% 29.89 in 10.0 mi ESE 12.7 mph - N/A   Overcast
3:31 PM 77.0 °F 68.0 °F 74% 29.89 in 10.0 mi ESE 9.2 mph - N/A   Overcast
3:36 PM 78.8 °F 68.0 °F 69% 29.89 in 10.0 mi East 10.4 mph - N/A   Overcast
3:56 PM 78.3 °F 67.6 °F 70% 29.88 in 10.0 mi ESE 13.8 mph - N/A   Overcast
4:06 PM 78.8 °F 68.0 °F 69% 29.88 in 10.0 mi East 10.4 mph - N/A   Overcast
4:36 PM 78.8 °F 68.0 °F 69% 29.88 in 10.0 mi East 15.0 mph - N/A   Mostly Cloudy
4:56 PM 79.7 °F 68.2 °F 68% 29.88 in 10.0 mi East 15.0 mph - N/A   Overcast
5:17 PM 77.0 °F 68.0 °F 74% 29.88 in 10.0 mi North - - N/A   Mostly Cloudy
6:56 PM 78.1 °F 67.5 °F 70% 29.88 in 10.0 mi ESE 15.0 mph - N/A   Mostly Cloudy
7:56 PM 76.5 °F 67.5 °F 74% 29.89 in 10.0 mi ESE 17.3 mph - N/A   Overcast
8:56 PM 75.4 °F 67.6 °F 77% 29.90 in 10.0 mi SE 15.0 mph - N/A   Clear
9:56 PM 74.5 °F 67.8 °F 80% 29.90 in 10.0 mi SE 16.1 mph 24.2 mph N/A   Partly Cloudy
10:31 PM 75.2 °F 68.0 °F 78% 29.91 in 10.0 mi SE 18.4 mph 27.6 mph N/A   Mostly Cloudy
10:56 PM 74.5 °F 68.2 °F 81% 29.91 in 10.0 mi SE 16.1 mph 25.3 mph N/A   Overcast
11:56 PM 73.9 °F 67.6 °F 81% 29.93 in 10.0 mi SE 15.0 mph - N/A   Overcast